Location: Maiden_LMO
(35.5760°N, 81.2120°W)
Time: 00:06:06
(UTC-04:00)

ADEOS II - Visible Passes

Search period start: 30 July 2015 00:00
Search period end: 09 August 2015 00:00
Orbit: 800 x 802 km, 98.3° (Epoch: 29 July)

Date Brightness Start Highest point End Pass type
(mag) Time Alt. Az. Time Alt. Az. Time Alt. Az.
30 Jul 4.7 05:35:32 10° NE 05:39:05 19° E 05:42:48 10° SE visible
02 Aug 4.1 05:55:47 10° NE 06:00:21 30° E 06:04:59 10° SSE visible
03 Aug 4.8 05:30:39 10° NE 05:33:51 17° E 05:37:18 10° SE visible
06 Aug 4.2 05:50:45 10° NE 05:55:09 27° E 05:59:39 10° SSE visible
07 Aug 4.8 05:25:48 10° ENE 05:28:37 15° E 05:31:43 10° SE visible
